Weather History for KCRW - April, 2013

Change the Weather History Date:

Wednesday, April 10, 2013

  Actual Average Record
Temperature  
Mean Temperature 72 °F 55 °F  
Max Temperature 88 °F 66 °F 89 °F (1933)
Min Temperature 55 °F 43 °F 21 °F (1997)
Degree Days  
Heating Degree Days 0 11  
Month to date heating degree days 126 125  
Since 1 July heating degree days 4286 4179  
Cooling Degree Days 7 1  
Month to date cooling degree days 14 9  
Year to date cooling degree days 14 14  
Growing Degree Days 22 (Base 50)    
Moisture  
Dew Point 50 °F    
Average Humidity 50    
Maximum Humidity 72    
Minimum Humidity 27    
Precipitation  
Precipitation 0.00 in 0.11 in 1.19 in (1938)
Month to date precipitation 0.16 1.05  
Year to date precipitation 9.36 11.15  
Snow  
Snow 0.00 in - - ()
Month to date snowfall 0.0  
Since 1 September snowfall 25.3  
Snow Depth 0.00 in    
Sea Level Pressure  
Sea Level Pressure 29.94 in    
Wind  
Wind Speed 6 mph (WSW)    
Max Wind Speed 21 mph    
Max Gust Speed 28 mph    
Visibility 10 miles    
Events      
T = Trace of Precipitation, MM = Missing Value Source: NWS Daily Summary

Daily Weather History Graph

Daily Weather History Graph

Search for Another Location

Airport or City:

Trip Planner

Search our weather history database for the weather conditions in past years. The results will help you decide how hot, cold, wet, or windy it might be!

Date:

Astronomy

Apr. 10, 2013 Rise Set
Actual Time 6:57 AM EDT 7:58 PM EDT
Civil Twilight 6:30 AM EDT 8:25 PM EDT
Nautical Twilight 5:58 AM EDT 8:57 PM EDT
Astronomical Twilight 5:24 AM EDT 9:31 PM EDT
Moon 6:53 AM EDT (4/10) 8:31 PM EDT (4/10)
Length of Visible Light 13h 55m
Length of Day
13h 00m
New Moon, 0% of the Moon is Illuminated
Apr 10
New Moon
Apr 18
First Quarter
Apr 25
Full
May 2
Last Quarter
May 9
New

Hourly Weather History & Observations

Time (EDT) Temp. Heat Index Dew Point Humidity Pressure Visibility Wind Dir Wind Speed Gust Speed Precip Events Conditions
12:54 AM 64.0 °F - 48.0 °F 56% 29.98 in 10.0 mi Calm Calm - N/A   Clear
1:54 AM 64.0 °F - 48.0 °F 56% 30.00 in 10.0 mi SW 3.5 mph - N/A   Clear
2:54 AM 62.1 °F - 48.0 °F 60% 30.00 in 10.0 mi SSW 3.5 mph - N/A   Clear
3:54 AM 61.0 °F - 48.0 °F 62% 30.01 in 10.0 mi SSE 3.5 mph - N/A   Clear
4:54 AM 59.0 °F - 48.0 °F 67% 30.01 in 10.0 mi Calm Calm - N/A   Scattered Clouds
5:54 AM 57.0 °F - 48.0 °F 72% 30.00 in 10.0 mi Calm Calm - N/A   Partly Cloudy
6:54 AM 57.9 °F - 48.0 °F 70% 29.99 in 10.0 mi Calm Calm - N/A   Partly Cloudy
7:54 AM 60.1 °F - 50.0 °F 69% 30.01 in 10.0 mi Calm Calm - N/A   Scattered Clouds
8:54 AM 66.0 °F - 51.1 °F 59% 30.01 in 10.0 mi Calm Calm - N/A   Clear
9:54 AM 75.9 °F - 52.0 °F 43% 30.01 in 10.0 mi SW 10.4 mph - N/A   Partly Cloudy
10:54 AM 77.0 °F - 52.0 °F 42% 30.00 in 10.0 mi SW 13.8 mph 27.6 mph N/A   Scattered Clouds
11:54 AM 81.0 °F 80.4 °F 53.1 °F 38% 29.99 in 10.0 mi WSW 16.1 mph 25.3 mph N/A   Scattered Clouds
12:54 PM 81.0 °F 80.5 °F 54.0 °F 39% 29.97 in 10.0 mi West 8.1 mph 20.7 mph N/A   Mostly Cloudy
1:54 PM 82.9 °F 81.8 °F 53.1 °F 36% 29.95 in 10.0 mi West 11.5 mph 20.7 mph N/A   Mostly Cloudy
2:54 PM 84.0 °F - 52.0 °F 33% 29.93 in 10.0 mi WSW 11.5 mph 18.4 mph N/A   Scattered Clouds
3:54 PM 84.9 °F - 52.0 °F 32% 29.90 in 10.0 mi WSW 12.7 mph 20.7 mph N/A   Scattered Clouds
4:54 PM 87.1 °F - 51.1 °F 29% 29.86 in 10.0 mi SW 17.3 mph 24.2 mph N/A   Scattered Clouds
5:54 PM 86.0 °F - 48.9 °F 28% 29.85 in 10.0 mi WSW 13.8 mph 21.9 mph N/A   Scattered Clouds
6:54 PM 84.9 °F - 48.0 °F 28% 29.83 in 10.0 mi WSW 15.0 mph 23.0 mph N/A   Scattered Clouds
7:54 PM 82.9 °F - 48.0 °F 29% 29.83 in 10.0 mi WSW 6.9 mph - N/A   Partly Cloudy
8:54 PM 81.0 °F - 48.9 °F 33% 29.84 in 10.0 mi West 4.6 mph - N/A   Partly Cloudy
9:54 PM 77.0 °F - 48.9 °F 37% 29.84 in 10.0 mi Calm Calm - N/A   Clear
10:54 PM 70.0 °F - 50.0 °F 49% 29.83 in 10.0 mi Calm Calm - N/A   Clear
11:54 PM 69.1 °F - 50.0 °F 51% 29.83 in 10.0 mi Calm Calm - N/A   Clear